Location: Centreville
(38.8333°N, 77.4295°W)
Time: 04:28:45
(UTC-04:00)

JUGNU - Visible Passes

Search period start: 23 October 2019 00:00
Search period end: 02 November 2019 00:00
Orbit: 837 x 864 km, 20.0° (Epoch: 22 October)

Date Brightness Start Highest point End Pass type
(mag) Time Alt. Az. Time Alt. Az. Time Alt. Az.
29 Oct ? 20:40:04 10° SSW 20:41:05 11° S 20:41:05 11° S visible
30 Oct ? 20:24:46 10° SSW 20:26:31 11° S 20:26:54 11° S visible
31 Oct ? 20:09:32 10° SSW 20:11:15 11° S 20:12:44 10° SSE visible
01 Nov ? 19:54:21 10° SSW 19:55:59 11° S 19:57:39 10° SSE visible
